Weather History for Wiscasset, ME

Change the Weather History Date:

Sunday, February 2, 2014

  Actual Average Record
Temperature  
Mean Temperature 37 °F -  
Max Temperature 42 °F 30 °F 48 °F (2008)
Min Temperature 32 °F 10 °F -2 °F (2005)
Degree Days  
Heating Degree Days 28    
Moisture  
Dew Point 32 °F    
Average Humidity 82    
Maximum Humidity 96    
Minimum Humidity 70    
Precipitation  
Precipitation 0.01 in - - ()
Sea Level Pressure  
Sea Level Pressure 29.94 in    
Wind  
Wind Speed 5 mph (SW)    
Max Wind Speed 9 mph    
Max Gust Speed -    
Visibility 9 miles    
Events      
Averages and records for this station are not official NWS values.
T = Trace of Precipitation, MM = Missing Value Source: NWS Daily Summary

Daily Weather History Graph

Daily Weather History Graph

Search for Another Location

Airport:

Trip Planner

Search our weather history database for the weather conditions in past years. The results will help you decide how hot, cold, wet, or windy it might be!

Date:

Astronomy

Feb. 02, 2014 Rise Set
Actual Time 6:55 AM EST 4:50 PM EST
Civil Twilight 6:24 AM EST 5:21 PM EST
Nautical Twilight 5:50 AM EST 5:55 PM EST
Astronomical Twilight 5:16 AM EST 6:29 PM EST
Moon 8:11 AM EST (2/2) 8:40 PM EST (2/2)
Length of Visible Light 10h 56m
Length of Day
9h 55m
Waxing Crescent, 11% of the Moon is Illuminated
Feb 2
Waxing Crescent
Feb 6
First Quarter
Feb 14
Full
Feb 22
Last Quarter
Mar 1
New

Hourly Weather History & Observations

Time (EST) Temp. Windchill Dew Point Humidity Pressure Visibility Wind Dir Wind Speed Gust Speed Precip Events Conditions
12:30 AM 37.0 °F 31.6 °F 30.0 °F 76% 30.00 in 10.0 mi SSW 6.9 mph - N/A   Overcast
12:53 AM 37.0 °F 30.4 °F 30.0 °F 76% 29.99 in 10.0 mi SSW 9.2 mph - N/A   Overcast
1:33 AM 37.9 °F 32.7 °F 30.0 °F 73% 29.98 in 10.0 mi SSW 6.9 mph - N/A   Mostly Cloudy
1:53 AM 37.0 °F 31.0 °F 30.0 °F 76% 29.99 in 10.0 mi SSW 8.1 mph - N/A   Mostly Cloudy
2:01 AM 37.0 °F 33.3 °F 30.0 °F 76% 29.99 in 10.0 mi SW 4.6 mph - N/A   Overcast
2:14 AM 37.0 °F 31.6 °F 30.0 °F 76% 29.98 in 10.0 mi SW 6.9 mph - N/A   Overcast
2:28 AM 37.9 °F 32.7 °F 30.0 °F 73% 29.96 in 10.0 mi SSW 6.9 mph - N/A   Overcast
2:50 AM 37.4 °F 32.8 °F 30.2 °F 75% 29.96 in 10.0 mi SW 5.8 mph - N/A   Overcast
2:53 AM 37.9 °F 32.7 °F 30.0 °F 73% 29.96 in 10.0 mi SW 6.9 mph - N/A   Overcast
3:22 AM 37.9 °F 31.5 °F 30.9 °F 76% 29.93 in 10.0 mi SSW 9.2 mph - N/A   Overcast
3:53 AM 37.0 °F 31.0 °F 30.9 °F 79% 29.91 in 10.0 mi SW 8.1 mph - N/A   Overcast
4:53 AM 37.9 °F 32.7 °F 33.1 °F 83% 29.89 in 10.0 mi SW 6.9 mph - N/A   Mostly Cloudy
5:53 AM 37.0 °F 32.4 °F 33.1 °F 86% 29.87 in 10.0 mi SW 5.8 mph - N/A   Overcast
6:53 AM 37.0 °F - 33.1 °F 86% 29.86 in 10.0 mi Calm Calm - N/A   Overcast
7:53 AM 37.0 °F - 33.1 °F 86% 29.88 in 9.0 mi Calm Calm - N/A   Partly Cloudy
8:53 AM 37.0 °F - 33.1 °F 86% 29.89 in 10.0 mi Calm Calm - N/A   Clear
9:53 AM 37.9 °F - 33.1 °F 83% 29.87 in 10.0 mi Calm Calm - N/A   Partly Cloudy
10:53 AM 39.9 °F - 33.1 °F 77% 29.88 in 10.0 mi Calm Calm - N/A   Mostly Cloudy
11:53 AM 41.0 °F - 33.1 °F 73% 29.86 in 10.0 mi Calm Calm - N/A   Overcast
12:53 PM 42.1 °F 40.2 °F 33.1 °F 70% 29.88 in 10.0 mi West 3.5 mph - N/A   Overcast
1:53 PM 41.0 °F - 32.0 °F 70% 29.87 in 10.0 mi Calm Calm - N/A   Overcast
2:53 PM 39.9 °F - 33.1 °F 77% 29.86 in 10.0 mi Calm Calm - N/A   Overcast
3:53 PM 37.0 °F - 34.0 °F 89% 29.91 in 6.0 mi Calm Calm - 0.00 in   Overcast
4:53 PM 36.0 °F - 34.0 °F 93% 29.93 in 6.0 mi Calm Calm - 0.01 in   Overcast
5:53 PM 35.1 °F - 34.0 °F 96% 29.92 in 5.0 mi Calm Calm - N/A   Overcast
6:53 PM 34.0 °F - 33.1 °F 96% 29.95 in 4.0 mi Calm Calm - N/A   Overcast
7:53 PM 34.0 °F - 33.1 °F 96% 29.98 in 4.0 mi Calm Calm - N/A   Overcast
8:53 PM 34.0 °F - 32.0 °F 92% 29.98 in 4.0 mi Calm Calm - N/A   Overcast
9:53 PM 33.1 °F - 32.0 °F 96% 30.00 in 4.0 mi Calm Calm - N/A   Overcast
10:53 PM 32.0 °F - 30.0 °F 92% 30.03 in 9.0 mi Calm Calm - N/A   Clear
11:53 PM 35.1 °F - 28.9 °F 78% 30.04 in 10.0 mi Calm Calm - N/A   Overcast